Taos, NM

7:57 AM MDT on May 27, 2017 (GMT -0600)
Taos Municipal

Weather History for KSKX - July, 2014

Change the Weather History Date:

Saturday, July 5, 2014

  Actual Average Record
Temperature  
Mean Temperature 65 °F -  
Max Temperature 82 °F 82 °F 91 °F (2001)
Min Temperature 48 °F 47 °F 39 °F (2004)
Growing Degree Days 15 (Base 50)    
Moisture  
Dew Point 45 °F    
Average Humidity 53    
Maximum Humidity 87    
Minimum Humidity 21    
Precipitation  
Precipitation 0.01 in - - ()
Sea Level Pressure  
Sea Level Pressure 30.39 in    
Wind  
Wind Speed 7 mph (ESE)    
Max Wind Speed 21 mph    
Max Gust Speed 29 mph    
Averages and records for this station are not official NWS values.
T = Trace of Precipitation, MM = Missing Value Source: NWS Daily Summary

Daily Weather History Graph

Daily Weather History Graph

Search for Another Location

Airport or City:

Trip Planner

Search our weather history database for the weather conditions in past years. The results will help you decide how hot, cold, wet, or windy it might be!

Date:

Astronomy

Jul. 05, 2014 Rise Set
Actual Time 5:50 AM MDT 8:24 PM MDT
Civil Twilight 5:20 AM MDT 8:54 PM MDT
Nautical Twilight 4:42 AM MDT 9:31 PM MDT
Astronomical Twilight 4:00 AM MDT 10:13 PM MDT
Moon 1:33 PM MDT (7/5) 12:30 AM MDT (7/5)
Length of Visible Light 15h 34m
Length of Day
14h 33m
First Quarter, 53% of the Moon is Illuminated
Jul 5
First Quarter
Jul 12
Full
Jul 18
Last Quarter
Jul 26
New
Aug 3
First Quarter

Hourly Weather History & Observations

Time (MDT) Temp. Dew Point Humidity Pressure Visibility Wind Dir Wind Speed Gust Speed Precip Events Conditions
12:15 AM 57.2 °F 48.2 °F 72% 30.46 in - SE 10.4 mph - N/A   Clear
12:35 AM 57.2 °F 46.4 °F 67% 30.46 in - SE 8.1 mph - N/A   Clear
12:55 AM 57.2 °F 48.2 °F 72% 30.45 in - SSE 9.2 mph - N/A   Clear
1:15 AM 57.2 °F 46.4 °F 67% 30.44 in - SE 10.4 mph - N/A   Partly Cloudy
1:35 AM 57.2 °F 46.4 °F 67% 30.44 in - SE 8.1 mph - N/A   Clear
1:55 AM 55.4 °F 48.2 °F 77% 30.43 in - East 6.9 mph - N/A   Clear
2:35 AM 53.6 °F 46.4 °F 77% 30.43 in - NNW 3.5 mph - N/A   Clear
2:55 AM 53.6 °F 46.4 °F 77% 30.43 in - Calm Calm - N/A   Clear
3:15 AM 53.6 °F 46.4 °F 77% 30.43 in - Calm Calm - N/A   Clear
3:35 AM 55.4 °F 46.4 °F 72% 30.43 in - Calm Calm - N/A   Clear
3:55 AM 53.6 °F 46.4 °F 77% 30.43 in - North 3.5 mph - N/A   Clear
4:15 AM 51.8 °F 46.4 °F 82% 30.42 in - ENE 5.8 mph - N/A   Clear
4:35 AM 51.8 °F 46.4 °F 82% 30.42 in - East 8.1 mph - N/A   Clear
4:55 AM 51.8 °F 46.4 °F 82% 30.42 in - ENE 4.6 mph - N/A   Clear
5:15 AM 51.8 °F 44.6 °F 76% 30.42 in - Calm Calm - N/A   Clear
5:35 AM 48.2 °F 44.6 °F 87% 30.42 in - East 5.8 mph - N/A   Unknown
5:55 AM 50.0 °F 44.6 °F 82% 30.43 in - ESE 6.9 mph - N/A   Clear
6:15 AM 48.2 °F 44.6 °F 87% 30.43 in - NW 4.6 mph - N/A   Unknown
6:35 AM 48.2 °F 44.6 °F 87% 30.43 in - Calm Calm - N/A   Unknown
6:55 AM 51.8 °F 44.6 °F 76% 30.43 in - Calm Calm - N/A   Clear
7:15 AM 51.8 °F 46.4 °F 82% 30.43 in - North 4.6 mph - N/A   Clear
7:35 AM 55.4 °F 46.4 °F 72% 30.44 in - North 4.6 mph - N/A   Clear
7:55 AM 57.2 °F 48.2 °F 72% 30.44 in - NNW 5.8 mph - N/A   Clear
8:15 AM 60.8 °F 46.4 °F 59% 30.44 in - NNW 4.6 mph - N/A   Clear
8:35 AM 62.6 °F 46.4 °F 55% 30.44 in - Calm Calm - N/A   Clear
8:55 AM 62.6 °F 46.4 °F 55% 30.44 in - Calm Calm - N/A   Clear
9:15 AM 66.2 °F 48.2 °F 52% 30.44 in - Calm Calm - N/A   Clear
9:35 AM 66.2 °F 46.4 °F 49% 30.43 in - Calm Calm - N/A   Clear
9:55 AM 68.0 °F 46.4 °F 46% 30.43 in - WNW 3.5 mph - N/A   Clear
10:15 AM 69.8 °F 46.4 °F 43% 30.42 in - Calm Calm - N/A   Clear
10:35 AM 71.6 °F 46.4 °F 41% 30.42 in - Calm Calm - N/A   Clear
10:55 AM 71.6 °F 44.6 °F 38% 30.42 in - Calm Calm - N/A   Clear
11:15 AM 73.4 °F 44.6 °F 36% 30.41 in - WNW 5.8 mph - N/A   Clear
11:35 AM 75.2 °F 44.6 °F 34% 30.40 in - NW 8.1 mph - N/A   Clear
11:55 AM 75.2 °F 44.6 °F 34% 30.39 in - SSE 3.5 mph - N/A   Clear
12:15 PM 78.8 °F 42.8 °F 28% 30.39 in - NW 5.8 mph - N/A   Clear
12:35 PM 80.6 °F 44.6 °F 28% 30.37 in - NW 12.7 mph - N/A   Clear
12:55 PM 80.6 °F 42.8 °F 26% 30.36 in - Calm Calm - N/A   Clear
1:15 PM 78.8 °F 42.8 °F 28% 30.36 in - Calm Calm - N/A   Clear
1:35 PM 80.6 °F 41.0 °F 24% 30.34 in - West 9.2 mph - N/A   Clear
2:15 PM 80.6 °F 39.2 °F 23% 30.33 in - West 10.4 mph - N/A   Clear
2:35 PM 82.4 °F 39.2 °F 21% 30.32 in - WSW 11.5 mph - N/A   Clear
2:55 PM 82.4 °F 41.0 °F 23% 30.32 in - SW 12.7 mph - N/A   Clear
3:15 PM 80.6 °F 39.2 °F 23% 30.33 in - ESE 4.6 mph - N/A   Mostly Cloudy
3:35 PM 75.2 °F 42.8 °F 31% 30.35 in - East 20.7 mph 27.6 mph N/A   Overcast
3:55 PM 73.4 °F 42.8 °F 33% 30.35 in - ESE 19.6 mph 28.8 mph N/A   Mostly Cloudy
4:15 PM 73.4 °F 44.6 °F 36% 30.35 in - East 15.0 mph 19.6 mph N/A   Mostly Cloudy
4:35 PM 71.6 °F 44.6 °F 38% 30.35 in - East 19.6 mph 24.2 mph N/A   Mostly Cloudy
4:55 PM 73.4 °F 42.8 °F 33% 30.34 in - East 15.0 mph - N/A   Mostly Cloudy
5:15 PM 73.4 °F 42.8 °F 33% 30.34 in - ESE 16.1 mph 24.2 mph N/A   Mostly Cloudy
5:35 PM 71.6 °F 42.8 °F 35% 30.34 in - ESE 15.0 mph - N/A   Scattered Clouds
5:55 PM 71.6 °F 42.8 °F 35% 30.34 in - South 9.2 mph - N/A   Mostly Cloudy
6:15 PM 69.8 °F 44.6 °F 40% 30.34 in - SW 16.1 mph - N/A   Overcast
6:35 PM 69.8 °F 44.6 °F 40% 30.34 in - WSW 13.8 mph - N/A   Mostly Cloudy
6:55 PM 69.8 °F 44.6 °F 40% 30.35 in - WSW 10.4 mph - N/A   Partly Cloudy
7:15 PM 69.8 °F 42.8 °F 38% 30.36 in - SW 9.2 mph - N/A   Scattered Clouds
7:35 PM 69.8 °F 42.8 °F 38% 30.37 in - SW 8.1 mph - N/A   Mostly Cloudy
7:55 PM 66.2 °F 44.6 °F 46% 30.37 in - SSW 4.6 mph - N/A   Overcast
8:15 PM 66.2 °F 44.6 °F 46% 30.37 in - Calm Calm - N/A   Partly Cloudy
8:35 PM 66.2 °F 44.6 °F 46% 30.38 in - East 4.6 mph - N/A   Clear
8:55 PM 64.4 °F 44.6 °F 49% 30.38 in - ESE 5.8 mph - N/A   Clear
9:15 PM 62.6 °F 44.6 °F 52% 30.38 in - SE 8.1 mph - N/A   Clear
9:35 PM 62.6 °F 44.6 °F 52% 30.38 in - SE 8.1 mph - N/A   Clear
9:55 PM 62.6 °F 44.6 °F 52% 30.39 in - East 5.8 mph - N/A   Clear
10:15 PM 60.8 °F 46.4 °F 59% 30.38 in - ESE 5.8 mph - N/A   Clear
10:35 PM 60.8 °F 46.4 °F 59% 30.38 in - ESE 9.2 mph - N/A   Clear
10:55 PM 59.0 °F 44.6 °F 59% 30.37 in - East 6.9 mph - N/A   Clear
11:15 PM 57.2 °F 44.6 °F 63% 30.38 in - ESE 5.8 mph - N/A   Clear
11:35 PM 57.2 °F 44.6 °F 63% 30.38 in - ESE 8.1 mph - N/A   Clear
11:55 PM 57.2 °F 44.6 °F 63% 30.38 in - East 6.9 mph - N/A   Clear